EDT,Max TemperatureF,Mean TemperatureF,Min TemperatureF,Max Dew PointF,MeanDew PointF,Min DewpointF,Max Humidity, Mean Humidity, Min Humidity, Max Sea Level PressureIn, Mean Sea Level PressureIn, Min Sea Level PressureIn, Max VisibilityMiles, Mean VisibilityMiles, Min VisibilityMiles, Max Wind SpeedMPH, Mean Wind SpeedMPH, Max Gust SpeedMPH,PrecipitationIn, CloudCover, Events, WindDirDegrees
2012-10-1,84,80,75,77,75,72,100,89,70,29.91,29.84,29.80,10,6,0,16,5,23,0.49,6,Fog-Rain,191
2012-10-2,88,80,73,77,74,72,100,89,65,30.09,29.97,29.90,10,6,0,25,7,32,1.71,6,Fog-Rain,210
2012-10-3,89,82,75,78,76,72,97,81,59,30.18,30.11,30.06,10,9,7,14,5,,0.05,1,,114
2012-10-4,90,84,79,79,76,73,94,79,59,30.17,30.13,30.08,10,10,5,13,7,20,0.02,2,Rain-Thunderstorm,83
2012-10-5,89,84,80,76,74,71,87,72,59,30.10,30.03,29.96,10,10,10,13,7,20,0.00,2,,84
2012-10-6,88,83,78,77,74,71,93,79,57,29.99,29.95,29.89,10,10,7,13,3,,0.01,3,Rain-Thunderstorm,89
2012-10-7,86,80,75,77,74,71,96,85,72,30.00,29.95,29.89,10,10,6,12,6,,0.04,1,Rain,48
2012-10-8,87,80,73,77,74,72,100,88,67,30.04,29.98,29.94,10,7,0,16,5,20,0.68,3,Fog-Rain,53
2012-10-9,89,81,75,77,74,71,100,79,61,30.04,30.01,29.97,10,9,3,9,3,,0.00,2,,34
2012-10-10,89,81,75,76,73,70,94,78,65,30.09,30.04,30.01,10,10,4,14,5,,0.11,3,Rain,29
2012-10-11,86,78,73,71,68,65,93,70,51,30.14,30.09,30.05,10,9,7,18,8,24,0.00,1,,18
2012-10-12,86,79,72,68,65,62,84,63,46,30.13,30.09,30.06,10,10,7,18,10,28,0.00,2,,9
2012-10-13,84,78,71,72,68,64,94,76,55,30.13,30.08,30.04,10,7,0,23,10,33,0.56,6,Fog-Rain,34
2012-10-14,86,80,75,76,73,66,100,83,65,30.07,29.99,29.95,10,5,0,23,14,38,0.77,7,Fog-Rain-Thunderstorm,71
2012-10-15,88,81,75,76,73,70,94,80,59,29.95,29.88,29.82,10,9,6,16,6,20,0.01,4,Rain,48
2012-10-16,88,80,73,73,71,68,93,76,57,29.87,29.83,29.79,10,10,8,12,5,,0.00,1,,25
2012-10-17,87,79,72,75,72,69,94,80,59,29.91,29.88,29.83,10,9,2,16,4,20,0.16,5,Rain,140
2012-10-18,89,82,75,77,74,69,96,81,53,29.91,29.86,29.83,10,8,0,17,5,23,0.40,4,Rain,160
2012-10-19,84,80,75,77,74,70,100,86,69,29.93,29.89,29.83,10,7,1,18,2,26,0.24,3,Rain,171
2012-10-20,89,80,73,75,72,66,100,79,48,29.96,29.91,29.86,10,9,4,13,5,,0.00,2,,338
2012-10-21,86,78,73,71,64,61,91,64,49,30.02,29.98,29.91,10,10,7,15,8,20,0.00,1,,29
2012-10-22,84,76,68,67,64,62,84,64,49,30.04,30.00,29.97,10,10,10,22,9,29,0.00,1,,43
2012-10-23,86,78,75,70,67,63,79,67,60,30.00,29.97,29.93,10,10,9,22,13,31,0.00,2,,60
2012-10-24,84,80,75,73,71,66,94,78,55,29.96,29.91,29.86,10,6,1,24,13,31,0.41,5,Rain-Thunderstorm,61
2012-10-25,82,76,71,74,70,64,94,83,66,29.85,29.76,29.66,10,6,1,31,14,44,0.69,7,Rain-Thunderstorm,53
2012-10-26,81,74,69,72,69,66,94,85,68,29.64,29.57,29.51,10,7,1,25,16,38,0.34,7,Rain,327
2012-10-27,84,77,70,66,62,58,79,64,42,29.72,29.59,29.53,10,10,9,26,19,38,0.00,2,,292
2012-10-28,82,76,69,66,61,56,87,66,45,29.81,29.75,29.70,10,9,5,21,13,29,0.00,2,,288
2012-10-29,73,66,60,56,48,39,73,54,31,29.90,29.84,29.78,10,10,4,20,13,28,0.00,1,,291
2012-10-30,73,64,55,52,47,40,78,56,37,30.04,29.94,29.86,10,10,10,21,9,29,0.00,0,,279
2012-10-31,75,64,54,58,53,51,90,67,46,30.09,30.05,30.01,10,10,7,10,2,,0.00,0,,289